Weather History for KLFI - September, 2012

Change the Weather History Date:

Sunday, September 9, 2012

  Actual Average Record
Temperature  
Mean Temperature 70 °F -  
Max Temperature 77 °F 78 °F 95 °F (1933)
Min Temperature 62 °F 64 °F 53 °F (1998)
Cooling Degree Days 4    
Growing Degree Days 20 (Base 50)    
Moisture  
Dew Point 59 °F    
Average Humidity 73    
Maximum Humidity 89    
Minimum Humidity 33    
Precipitation  
Precipitation 0.02 in - - ()
Sea Level Pressure  
Sea Level Pressure 29.87 in    
Wind  
Wind Speed 10 mph (NNW)    
Max Wind Speed 15 mph    
Max Gust Speed 18 mph    
Visibility 10 miles    
Events Rain    
Averages and records for this station are not official NWS values.
T = Trace of Precipitation, MM = Missing Value Source: NWS Daily Summary

Daily Weather History Graph

Daily Weather History Graph

Search for Another Location

Airport or City:

Trip Planner

Search our weather history database for the weather conditions in past years. The results will help you decide how hot, cold, wet, or windy it might be!

Date:

Astronomy

Sep. 09, 2012 Rise Set
Actual Time 6:43 AM EDT 7:21 PM EDT
Civil Twilight 6:16 AM EDT 7:47 PM EDT
Nautical Twilight 5:45 AM EDT 8:18 PM EDT
Astronomical Twilight 5:14 AM EDT 8:50 PM EDT
Moon 12:16 AM EDT (9/9) 2:59 PM EDT (9/9)
Length of Visible Light 13h 30m
Length of Day
12h 38m
Last Quarter, 39% of the Moon is Illuminated
Sep 9
Last Quarter
Sep 15
New
Sep 22
First Quarter
Sep 29
Full
Oct 8
Last Quarter

Hourly Weather History & Observations

Time (EDT) Temp. Dew Point Humidity Pressure Visibility Wind Dir Wind Speed Gust Speed Precip Events Conditions
12:15 AM 68.0 °F 64.4 °F 88% 29.82 in 10.0 mi NNE 10.4 mph - N/A Rain Light Rain
12:55 AM 67.3 °F 63.5 °F 88% 29.83 in 10.0 mi North 9.2 mph - 0.01 in Rain Light Rain
12:57 AM 68.0 °F 62.6 °F 83% 29.83 in 10.0 mi NNW 8.1 mph - N/A   Mostly Cloudy
1:55 AM 67.1 °F 63.7 °F 89% 29.83 in 10.0 mi NNW 6.9 mph - 0.00 in   Overcast
3:48 AM 66.2 °F 60.8 °F 83% 29.81 in 10.0 mi North 11.5 mph - N/A Rain Light Rain
3:55 AM 66.6 °F 61.7 °F 84% 29.81 in 10.0 mi North 10.4 mph - 0.00 in Rain Light Rain
4:55 AM 66.4 °F 61.9 °F 85% 29.83 in 10.0 mi North 10.4 mph - 0.01 in   Overcast
5:15 AM 66.2 °F 60.8 °F 83% 29.83 in 10.0 mi NNW 11.5 mph - N/A Rain Light Rain
5:16 AM 66.2 °F 60.8 °F 83% 29.83 in 10.0 mi NNW 12.7 mph - N/A   Overcast
5:38 AM 66.2 °F 60.8 °F 83% 29.84 in 10.0 mi NNW 13.8 mph - N/A Rain Light Rain
5:55 AM 65.8 °F 60.6 °F 83% 29.84 in 10.0 mi NNW 11.5 mph - 0.00 in Rain Light Rain
6:14 AM 66.2 °F 60.8 °F 83% 29.84 in 10.0 mi NNW 11.5 mph - N/A   Overcast
6:21 AM 66.2 °F 60.8 °F 83% 29.85 in 10.0 mi North 13.8 mph - N/A Rain Light Rain
6:34 AM 66.2 °F 60.8 °F 83% 29.85 in 10.0 mi North 12.7 mph - N/A   Overcast
6:44 AM 66.2 °F 60.8 °F 83% 29.85 in 10.0 mi North 12.7 mph - N/A   Overcast
6:55 AM 65.8 °F 60.1 °F 82% 29.85 in 10.0 mi North 11.5 mph - 0.00 in   Overcast
6:59 AM 66.2 °F 60.8 °F 83% 29.86 in 10.0 mi NW 6.9 mph - N/A   Overcast
7:02 AM 66.2 °F 60.8 °F 83% 29.85 in 10.0 mi NW 8.1 mph - N/A Rain Light Rain
7:18 AM 66.2 °F 60.8 °F 83% 29.86 in 10.0 mi NW 6.9 mph - N/A Rain Light Rain
7:19 AM 66.2 °F 60.8 °F 83% 29.86 in 10.0 mi WNW 5.8 mph - N/A   Overcast
7:55 AM 65.5 °F 60.3 °F 83% 29.86 in 10.0 mi NW 5.8 mph - 0.00 in   Mostly Cloudy
8:15 AM 66.2 °F 60.8 °F 83% 29.86 in 10.0 mi NNW 8.1 mph - N/A   Overcast
8:55 AM 66.9 °F 59.9 °F 78% 29.88 in 10.0 mi NNW 9.2 mph - N/A   Overcast
9:55 AM 70.2 °F 60.1 °F 70% 29.89 in 10.0 mi NNW 10.4 mph - N/A   Overcast
10:02 AM 69.8 °F 60.8 °F 73% 29.89 in 10.0 mi NNW 9.2 mph - N/A   Mostly Cloudy
10:10 AM 71.6 °F 60.8 °F 69% 29.90 in 10.0 mi NNW 9.2 mph - N/A   Mostly Cloudy
10:55 AM 72.0 °F 60.3 °F 67% 29.90 in 10.0 mi North 10.4 mph - N/A   Partly Cloudy
11:55 AM 74.1 °F 59.0 °F 59% 29.89 in 10.0 mi North 11.5 mph 18.4 mph N/A   Scattered Clouds
12:27 PM 75.2 °F 57.2 °F 53% 29.89 in 10.0 mi North 10.4 mph - N/A   Mostly Cloudy
12:37 PM 75.2 °F 57.2 °F 53% 29.89 in 10.0 mi North 8.1 mph - N/A   Scattered Clouds
12:55 PM 75.7 °F 57.2 °F 52% 29.88 in 10.0 mi North 10.4 mph - N/A   Partly Cloudy
1:55 PM 75.2 °F 57.0 °F 53% 29.88 in 10.0 mi NNE 8.1 mph - N/A   Mostly Cloudy
2:55 PM 76.1 °F 46.9 °F 36% 29.86 in 10.0 mi NW 15.0 mph - N/A   Clear
3:55 PM 77.4 °F 46.2 °F 33% 29.86 in 10.0 mi NW 12.7 mph - N/A   Scattered Clouds
6:55 PM 73.0 °F 45.9 °F 38% 29.88 in 10.0 mi NNW 9.2 mph - N/A   Clear
7:55 PM 67.3 °F 50.5 °F 55% 29.90 in 10.0 mi NW 4.6 mph - N/A   Clear
8:55 PM 64.9 °F 54.9 °F 70% 29.92 in 10.0 mi WNW 4.6 mph - N/A   Clear
9:55 PM 63.5 °F 56.5 °F 78% 29.93 in 10.0 mi Calm Calm - N/A   Clear
10:55 PM 62.6 °F 56.5 °F 80% 29.93 in 10.0 mi Calm Calm - N/A   Partly Cloudy
11:55 PM 65.1 °F 53.1 °F 65% 29.94 in 10.0 mi WNW 5.8 mph - N/A   Clear